Tracking 29892 objects as of 21-Nov-2024
HD Live streaming from Space Station
objects crossing your sky now

STARLINK-30212

Track STARLINK-30212 now!
10-day predictions
STARLINK-30212 is classified as:


NORAD ID: 57506
Int'l Code: 2023-113M
Perigee: 564.9 km
Apogee: 567.5 km
Inclination: 43.0 °
Period: 95.8 minutes
Semi major axis: 6937 km
RCS: Unknown
Launch date: August 7, 2023
Source: United States (US)
Launch site: AIR FORCE EASTERN TEST RANGE (AFETR)
Your satellite tracking list
Your tracking list is empty




NASA's NSSDC Master Catalog

Two Line Element Set (TLE):
1 57506U 23113M   24325.76709208 -.00002731  00000-0 -18715-3 0  9998
2 57506  43.0041  73.0299 0001906 273.1287  86.9338 15.02543049 72204
Source of the keplerian elements: AFSPC